Weather observations for the past three days for
Jonesboro, Jonesboro Municipal Airport
Imperial (Metric)
Date Time (cdt) Wind (mph) Vis. (mi.) Weather Sky Cond. Temperature (ºF) Relative Humidity Wind Chill (°F) Heat Index (°F) Pressure Precipitation (in)
Air Dwpt 6 hour altimeter (in) sea level (mb) 1 hr 3 hr 6 hr
Max. Min.
14 08:53 SW 6 10.00 Fair CLR 84 71.1 65% 89 30.14 1020.2
14 07:53 Calm 10.00 Fair CLR 80.1 71.1 74% 84 30.13 1020.0
14 06:53 S 3 10.00 Fair CLR 77 71.1 80.1 73 82% 79 30.12 1019.6
14 05:53 Calm 8.00 Fair CLR 73.9 70 88% 30.11 1019.3
14 04:53 Calm 8.00 Fair CLR 73 70 90% 30.11 1019.1
14 02:53 Calm 10.00 Fair CLR 75.9 72 88% 76 30.11 1019.1
14 01:53 Calm 10.00 Fair CLR 78.1 73 85% 81 30.12 1019.7
14 00:53 Calm 10.00 Fair CLR 79 72 90 78.1 79% 82 30.13 1020.0
13 23:53 S 3 10.00 Overcast OVC120 82 72 72% 87 30.14 1020.3
13 22:53 SE 3 10.00 Fair CLR 82 72 72% 87 30.14 1020.1
13 21:53 S 6 10.00 Fair CLR 82.9 73 72% 89 30.13 1019.9
13 20:53 S 5 10.00 Fair CLR 84.9 72 65% 91 30.12 1019.6
13 19:53 S 5 10.00 Fair CLR 87.1 70 57% 92 30.11 1019.3
13 18:53 S 7 10.00 Fair CLR 90 68 93 89.1 48% 94 30.11 1019.2
13 17:53 SW 9 10.00 Fair CLR 91 64.9 42% 93 30.11 1019.3
13 16:53 S 5 10.00 Fair CLR 91.9 64 40% 94 30.13 1019.8
13 15:53 Calm 10.00 Mostly Cloudy BKN050 BKN060 91.9 68 46% 96 30.14 1020.3
13 14:53 S 3 10.00 Mostly Cloudy SCT048 BKN065 91 66 44% 94 30.16 1021.0
13 13:53 Vrbl 7 10.00 Mostly Cloudy BKN047 91 68 47% 95 30.19 1021.8
13 12:53 SW 9 10.00 A Few Clouds FEW050 91.9 68 91.9 73.9 46% 96 30.2 1022.4
13 11:53 S 8 10.00 Fair CLR 90 70 52% 95 30.2 1022.3
13 10:53 SW 5 10.00 Fair CLR 88 70 55% 93 30.2 1022.3
13 09:53 SW 7 10.00 Fair CLR 86 68 55% 89 30.2 1022.2
13 08:53 S 3 10.00 Fair CLR 82.9 72 70% 88 30.2 1022.2
13 07:53 Calm 10.00 Fair CLR 78.1 71.1 79% 80 30.19 1021.9
13 06:53 Calm 10.00 Fair CLR 73.9 70 77 72 88% 30.18 1021.6
13 05:53 Calm 10.00 A Few Clouds FEW110 73 68 84% 30.16 1020.8
13 04:53 Calm 10.00 Mostly Cloudy BKN110 73 69.1 87% 30.14 1020.2
13 02:53 Calm 10.00 Fair CLR 73.9 69.1 85% 30.12 1019.6
13 01:53 Calm 10.00 A Few Clouds FEW110 73.9 69.1 85% 30.12 1019.7
13 00:53 Calm 10.00 Fair CLR 75.9 70 89.1 75 82% 77 30.13 1020.0
12 22:53 E 3 10.00 Fair CLR 75.9 70 82% 77 30.13 1019.8
12 21:53 Calm 10.00 Fair CLR 77 70 79% 79 30.11 1019.3
12 20:53 Calm 10.00 Fair CLR 81 69.1 67% 84 30.1 1019.0
12 19:53 S 5 10.00 Fair CLR 86 68 55% 89 30.08 1018.4
12 18:53 SW 8 10.00 Fair CLR 89.1 66 91 88 47% 92 30.07 1018.0
12 17:53 SW 8 10.00 Fair CLR 90 63 41% 91 30.08 1018.1
12 16:53 SE 8 10.00 Fair CLR 90 66.9 47% 93 30.09 1018.4
12 15:53 S 8 10.00 A Few Clouds FEW048 91 66 44% 94 30.09 1018.7
12 14:53 S 8 10.00 Mostly Cloudy BKN044 90 68 48% 94 30.11 1019.1
12 13:53 SW 6 10.00 Mostly Cloudy BKN042 BKN050 88 68 52% 92 30.12 1019.4
12 12:53 Vrbl 7 10.00 Partly Cloudy SCT042 89.1 66 89.1 73.9 47% 92 30.12 1019.7
12 10:53 W 10 10.00 Fair CLR 86 64.9 49% 88 30.13 1020.0
12 09:53 SW 9 10.00 Fair CLR 84.9 66.9 55% 88 30.13 1019.9
12 08:53 SW 8 10.00 Fair CLR 82.9 66.9 59% 86 30.12 1019.7
12 07:53 Calm 10.00 Fair CLR 79 71.1 77% 82 30.11 1019.3
12 06:53 Calm 10.00 Fair CLR 73.9 68 78.1 71.1 82% 30.1 1018.8
12 05:53 Calm 10.00 Fair CLR 72 68 87% 30.08 1018.1
12 04:53 Calm 10.00 Fair CLR 73 69.1 87% 30.06 1017.4
12 03:53 Calm 10.00 Fair CLR 72 68 87% 30.04 1016.8
12 02:53 Calm 10.00 Fair CLR 73 68 84% 30.04 1016.7
12 01:53 Calm 10.00 Fair CLR 75 69.1 82% 75 30.05 1017.0
12 00:53 Calm 10.00 Fair CLR 78.1 69.1 88 75 74% 80 30.06 1017.4
11 23:53 Calm 10.00 Fair CLR 75.9 70 82% 77 30.06 1017.6
11 22:53 Calm 10.00 Fair CLR 75.9 69.1 79% 77 30.06 1017.4
11 21:53 Calm 10.00 Fair CLR 75.9 69.1 79% 77 30.05 1017.0
11 20:53 Calm 10.00 Fair CLR 79 68 69% 81 30.03 1016.6
11 19:53 S 5 10.00 Fair CLR 84.9 66 53% 87 30.03 1016.5
11 18:53 S 8 10.00 Fair CLR 88 63 90 87.1 43% 89 30.02 1016.1
11 17:53 S 6 10.00 A Few Clouds FEW050 89.1 63 42% 90 30.02 1016.1
11 16:53 S 9 10.00 Fair CLR 89.1 64.9 45% 91 30.02 1016.3
11 15:53 S 8 10.00 A Few Clouds FEW050 89.1 64.9 45% 91 30.03 1016.7
11 14:53 SW 10 G 16 10.00 Mostly Cloudy BKN050 BKN060 88 64.9 46% 90 30.04 1016.9
11 13:53 S 9 10.00 Partly Cloudy FEW049 SCT060 88 64.9 46% 90 30.05 1017.3
11 12:53 S 5 10.00 Mostly Cloudy BKN046 BKN065 BKN075 87.1 64.9 88 72 48% 89 30.06 1017.7
11 11:53 Vrbl 3 10.00 Mostly Cloudy SCT048 BKN060 86 64 48% 87 30.08 1018.1
11 10:53 Calm 10.00 Fair CLR 86 64.9 49% 88 30.07 1017.9
11 09:53 W 5 10.00 Fair CLR 84 66 55% 86 30.07 1017.9
Date Time (cdt) Wind (mph) Vis. (mi.) Weather Sky Cond. Air Dwpt Max. Min. Relative Humidity Wind Chill (°F) Heat Index (°F) altimeter (in) sea level (mb) 1 hr 3 hr 6 hr
6 hour
Temperature (ºF) Pressure Precipitation (in)